Tracking 35035 objects as of 16-Aug-2026
HD Live streaming from Space Station
objects crossing your sky now

SALYUT 7 DEB


SALYUT 7 DEB is no longer on orbit


NORAD ID: 14857
Int'l Code: 1982-033AS
Launch date: April 19, 1982
Source: Commonwealth of Independent States (former USSR) (CIS)
Launch site: TYURATAM MISSILE AND SPACE COMPLEX (TTMTR)
Decay date: 1984-03-29

Note: This is SATELLITE DEBRIS
Your satellite tracking list
Your tracking list is empty




NASA's NSSDC Master Catalog

Two Line Element Set (TLE):
1 14857U 82033 AS 84088.43106004  .06803236 +53884-4 +26429-2 0  9992
2 14857 051.6881 071.1120 0022284 218.2071 139.3688 16.22478972112164
Source of the keplerian elements: AFSPC